Year,Month,Day,Hour,Minute,Value (Times are PST for temperature in C)
2019,09,20,00,00,13.70
2019,09,20,00,01,13.70
2019,09,20,00,02,13.70
2019,09,20,00,03,13.70
2019,09,20,00,04,13.70
2019,09,20,00,05,13.70
2019,09,20,00,06,13.70
2019,09,20,00,07,13.70
2019,09,20,00,08,13.70
2019,09,20,00,09,13.70
2019,09,20,00,10,13.70
2019,09,20,00,11,13.70
2019,09,20,00,12,13.70
2019,09,20,00,13,13.70
2019,09,20,00,14,13.60
2019,09,20,00,15,13.60
2019,09,20,00,16,13.60
2019,09,20,00,17,13.60
2019,09,20,00,18,13.60
2019,09,20,00,19,13.60
2019,09,20,00,20,13.60
2019,09,20,00,21,13.60
2019,09,20,00,22,13.60
2019,09,20,00,23,13.60
2019,09,20,00,24,13.60
2019,09,20,00,25,13.60
2019,09,20,00,26,13.60
2019,09,20,00,27,13.60
2019,09,20,00,28,13.60
2019,09,20,00,29,13.60
2019,09,20,00,30,13.60
2019,09,20,00,31,13.60
2019,09,20,00,32,13.50
2019,09,20,00,33,13.50
2019,09,20,00,34,13.50
2019,09,20,00,35,13.50
2019,09,20,00,36,13.50
2019,09,20,00,37,13.50
2019,09,20,00,38,13.50
2019,09,20,00,39,13.50
2019,09,20,00,40,13.50
2019,09,20,00,41,13.50
2019,09,20,00,42,13.50
2019,09,20,00,43,13.50
2019,09,20,00,44,13.40
2019,09,20,00,45,13.50
2019,09,20,00,46,13.40
2019,09,20,00,47,13.40
2019,09,20,00,48,13.40
2019,09,20,00,49,13.40
2019,09,20,00,50,13.40
2019,09,20,00,51,13.40
2019,09,20,00,52,13.40
2019,09,20,00,53,13.40
2019,09,20,00,54,13.40
2019,09,20,00,55,13.40
2019,09,20,00,56,13.40
2019,09,20,00,57,13.40
2019,09,20,00,58,13.40
2019,09,20,00,59,13.40
2019,09,20,01,00,13.40
2019,09,20,01,01,13.40
2019,09,20,01,02,13.30
2019,09,20,01,03,13.30
2019,09,20,01,04,13.30
2019,09,20,01,05,13.30
2019,09,20,01,06,13.30
2019,09,20,01,07,13.30
2019,09,20,01,08,13.30
2019,09,20,01,09,13.30
2019,09,20,01,10,13.30
2019,09,20,01,11,13.30
2019,09,20,01,12,13.30
2019,09,20,01,13,13.30
2019,09,20,01,14,13.30
2019,09,20,01,15,13.30
2019,09,20,01,16,13.30
2019,09,20,01,17,13.30
2019,09,20,01,18,13.30
2019,09,20,01,19,13.30
2019,09,20,01,20,13.30
2019,09,20,01,21,13.30
2019,09,20,01,22,13.30
2019,09,20,01,23,13.30
2019,09,20,01,24,13.30
2019,09,20,01,25,13.30
2019,09,20,01,26,13.30
2019,09,20,01,27,13.30
2019,09,20,01,28,13.30
2019,09,20,01,29,13.30
2019,09,20,01,30,13.30
2019,09,20,01,31,13.30
2019,09,20,01,32,13.30
2019,09,20,01,33,13.30
2019,09,20,01,34,13.30
2019,09,20,01,35,13.30
2019,09,20,01,36,13.30
2019,09,20,01,37,13.20
2019,09,20,01,38,13.20
2019,09,20,01,39,13.20
2019,09,20,01,40,13.20
2019,09,20,01,41,13.20
2019,09,20,01,42,13.20
2019,09,20,01,43,13.20
2019,09,20,01,44,13.20
2019,09,20,01,45,13.20
2019,09,20,01,46,13.20
2019,09,20,01,47,13.20
2019,09,20,01,48,13.20
2019,09,20,01,49,13.20
2019,09,20,01,50,13.20
2019,09,20,01,51,13.20
2019,09,20,01,52,13.20
2019,09,20,01,53,13.20
2019,09,20,01,54,13.20
2019,09,20,01,55,13.20
2019,09,20,01,56,13.20
2019,09,20,01,57,13.20
2019,09,20,01,58,13.20
2019,09,20,01,59,13.20
2019,09,20,02,00,13.20
2019,09,20,02,01,13.20
2019,09,20,02,02,13.20
2019,09,20,02,03,13.20
2019,09,20,02,04,13.20
2019,09,20,02,05,13.20
2019,09,20,02,06,13.20
2019,09,20,02,07,13.20
2019,09,20,02,08,13.20
2019,09,20,02,09,13.20
2019,09,20,02,10,13.20
2019,09,20,02,11,13.20
2019,09,20,02,12,13.20
2019,09,20,02,13,13.20
2019,09,20,02,14,13.20
2019,09,20,02,15,13.20
2019,09,20,02,16,13.20
2019,09,20,02,17,13.20
2019,09,20,02,18,13.20
2019,09,20,02,19,13.20
2019,09,20,02,20,13.20
2019,09,20,02,21,13.20
2019,09,20,02,22,13.20
2019,09,20,02,23,13.20
2019,09,20,02,24,13.20
2019,09,20,02,25,13.20
2019,09,20,02,26,13.20
2019,09,20,02,27,13.20
2019,09,20,02,28,13.20
2019,09,20,02,29,13.10
2019,09,20,02,30,13.10
2019,09,20,02,31,13.10
2019,09,20,02,32,13.10
2019,09,20,02,33,13.10
2019,09,20,02,34,13.10
2019,09,20,02,35,13.10
2019,09,20,02,36,13.10
2019,09,20,02,37,13.10
2019,09,20,02,38,13.10
2019,09,20,02,39,13.10
2019,09,20,02,40,13.10
2019,09,20,02,41,13.10
2019,09,20,02,42,13.10
2019,09,20,02,43,13.10
2019,09,20,02,44,13.10
2019,09,20,02,45,13.10
2019,09,20,02,46,13.10
2019,09,20,02,47,13.10
2019,09,20,02,48,13.10
2019,09,20,02,49,13.10
2019,09,20,02,50,13.10
2019,09,20,02,51,13.10
2019,09,20,02,52,13.10
2019,09,20,02,53,13.10
2019,09,20,02,54,13.10
2019,09,20,02,55,13.10
2019,09,20,02,56,13.10
2019,09,20,02,57,13.10
2019,09,20,02,58,13.00
2019,09,20,02,59,13.00
2019,09,20,03,00,13.00
2019,09,20,03,01,13.00
2019,09,20,03,02,12.90
2019,09,20,03,03,12.90
2019,09,20,03,04,12.90
2019,09,20,03,05,12.90
2019,09,20,03,06,12.90
2019,09,20,03,07,12.90
2019,09,20,03,08,12.90
2019,09,20,03,09,12.90
2019,09,20,03,10,12.90
2019,09,20,03,11,12.90
2019,09,20,03,12,12.90
2019,09,20,03,13,12.90
2019,09,20,03,14,12.90
2019,09,20,03,15,12.90
2019,09,20,03,16,12.90
2019,09,20,03,17,12.90
2019,09,20,03,18,13.00
2019,09,20,03,19,13.00
2019,09,20,03,20,12.90
2019,09,20,03,21,12.90
2019,09,20,03,22,12.90
2019,09,20,03,23,12.90
2019,09,20,03,24,12.90
2019,09,20,03,25,12.90
2019,09,20,03,26,12.90
2019,09,20,03,27,12.90
2019,09,20,03,28,12.90
2019,09,20,03,29,12.90
2019,09,20,03,30,12.90
2019,09,20,03,31,12.90
2019,09,20,03,32,12.90
2019,09,20,03,33,12.90
2019,09,20,03,34,12.90
2019,09,20,03,35,12.90
2019,09,20,03,36,12.90
2019,09,20,03,37,12.90
2019,09,20,03,38,12.90
2019,09,20,03,39,12.90
2019,09,20,03,40,12.90
2019,09,20,03,41,12.90
2019,09,20,03,42,12.90
2019,09,20,03,43,12.90
2019,09,20,03,44,12.80
2019,09,20,03,45,12.80
2019,09,20,03,46,12.80
2019,09,20,03,47,12.80
2019,09,20,03,48,12.80
2019,09,20,03,49,12.80
2019,09,20,03,50,12.80
2019,09,20,03,51,12.80
2019,09,20,03,52,12.80
2019,09,20,03,53,12.80
2019,09,20,03,54,12.80
2019,09,20,03,55,12.80
2019,09,20,03,56,12.80
2019,09,20,03,57,12.80
2019,09,20,03,58,12.80
2019,09,20,03,59,12.80
2019,09,20,04,00,12.80
2019,09,20,04,01,12.80
2019,09,20,04,02,12.80
2019,09,20,04,03,12.80
2019,09,20,04,04,12.80
2019,09,20,04,05,12.80
2019,09,20,04,06,12.80
2019,09,20,04,07,12.80
2019,09,20,04,08,12.80
2019,09,20,04,09,12.80
2019,09,20,04,10,12.80
2019,09,20,04,11,12.80
2019,09,20,04,12,12.80
2019,09,20,04,13,12.80
2019,09,20,04,14,12.80
2019,09,20,04,15,12.80
2019,09,20,04,16,12.80
2019,09,20,04,17,12.80
2019,09,20,04,18,12.80
2019,09,20,04,19,12.80
2019,09,20,04,20,12.80
2019,09,20,04,21,12.80
2019,09,20,04,22,12.70
2019,09,20,04,23,12.70
2019,09,20,04,24,12.70
2019,09,20,04,25,12.70
2019,09,20,04,26,12.70
2019,09,20,04,27,12.70
2019,09,20,04,28,12.60
2019,09,20,04,29,12.60
2019,09,20,04,30,12.60
2019,09,20,04,31,12.60
2019,09,20,04,32,12.60
2019,09,20,04,33,12.60
2019,09,20,04,34,12.60
2019,09,20,04,35,12.60
2019,09,20,04,36,12.60
2019,09,20,04,37,12.60
2019,09,20,04,38,12.60
2019,09,20,04,39,12.60
2019,09,20,04,40,12.60
2019,09,20,04,41,12.60
2019,09,20,04,42,12.60
2019,09,20,04,43,12.60
2019,09,20,04,44,12.60
2019,09,20,04,45,12.60
2019,09,20,04,46,12.60
2019,09,20,04,47,12.60
2019,09,20,04,48,12.60
2019,09,20,04,49,12.60
2019,09,20,04,50,12.60
2019,09,20,04,51,12.60
2019,09,20,04,52,12.60
2019,09,20,04,53,12.60
2019,09,20,04,54,12.60
2019,09,20,04,55,12.60
2019,09,20,04,56,12.60
2019,09,20,04,57,12.60
2019,09,20,04,58,12.60
2019,09,20,04,59,12.60
2019,09,20,05,00,12.60
2019,09,20,05,01,12.60
2019,09,20,05,02,12.60
2019,09,20,05,03,12.60
2019,09,20,05,04,12.60
2019,09,20,07,36,12.60
2019,09,20,07,37,12.60
2019,09,20,07,38,12.60
2019,09,20,07,39,12.60
2019,09,20,07,40,12.60
2019,09,20,07,41,12.60
2019,09,20,07,42,12.60
2019,09,20,07,43,12.60
2019,09,20,07,44,12.60
2019,09,20,07,45,12.60
2019,09,20,07,46,12.60
2019,09,20,07,47,12.60
2019,09,20,07,48,12.60
2019,09,20,07,49,12.60
2019,09,20,07,50,12.60
2019,09,20,07,51,12.60
2019,09,20,07,52,12.60
2019,09,20,07,53,12.60
2019,09,20,07,54,12.60
2019,09,20,07,55,12.60
2019,09,20,07,56,12.60
2019,09,20,07,57,12.60
2019,09,20,07,58,12.60
2019,09,20,07,59,12.60
2019,09,20,08,00,12.60
2019,09,20,08,01,12.60
2019,09,20,08,02,12.60
2019,09,20,08,03,12.60
2019,09,20,08,04,12.60
2019,09,20,08,05,12.60
2019,09,20,08,06,12.60
2019,09,20,08,07,12.60
2019,09,20,08,08,12.60
2019,09,20,08,09,12.70
2019,09,20,08,10,12.70
2019,09,20,08,11,12.70
2019,09,20,08,12,12.70
2019,09,20,08,13,12.70
2019,09,20,08,14,12.70
2019,09,20,08,15,12.70
2019,09,20,08,16,12.70
2019,09,20,08,17,12.80
2019,09,20,08,18,12.80
2019,09,20,08,19,12.80
2019,09,20,08,20,12.80
2019,09,20,08,21,12.80
2019,09,20,08,22,12.80
2019,09,20,08,23,12.80
2019,09,20,08,24,12.80
2019,09,20,08,25,12.80
2019,09,20,08,26,12.80
2019,09,20,08,27,12.80
2019,09,20,08,28,12.80
2019,09,20,08,29,12.80
2019,09,20,08,30,12.80
2019,09,20,08,31,12.90
2019,09,20,08,32,12.90
2019,09,20,08,33,12.90
2019,09,20,08,34,12.90
2019,09,20,08,35,12.90
2019,09,20,08,36,12.90
2019,09,20,08,37,12.90
2019,09,20,08,38,12.90
2019,09,20,08,39,12.90
2019,09,20,08,40,12.90
2019,09,20,08,41,13.00
2019,09,20,08,42,13.00
2019,09,20,08,43,13.00
2019,09,20,08,44,13.00
2019,09,20,08,45,13.10
2019,09,20,08,46,13.10
2019,09,20,08,47,13.10
2019,09,20,08,48,13.10
2019,09,20,08,49,13.10
2019,09,20,08,50,13.10
2019,09,20,08,51,13.10
2019,09,20,08,52,13.10
2019,09,20,08,53,13.10
2019,09,20,08,54,13.10
2019,09,20,08,55,13.10
2019,09,20,08,56,13.10
2019,09,20,08,57,13.20
2019,09,20,08,58,13.20
2019,09,20,08,59,13.20
2019,09,20,09,00,13.20
2019,09,20,09,01,13.20
2019,09,20,09,02,13.20
2019,09,20,09,03,13.20
2019,09,20,09,04,13.20
2019,09,20,09,05,13.20
2019,09,20,09,06,13.20
2019,09,20,09,07,13.30
2019,09,20,09,08,13.30
2019,09,20,09,09,13.30
2019,09,20,09,10,13.30
2019,09,20,09,11,13.30
2019,09,20,09,12,13.30
2019,09,20,09,13,13.40
2019,09,20,09,14,13.40
2019,09,20,09,15,13.40
2019,09,20,09,16,13.40
2019,09,20,09,17,13.40
2019,09,20,09,18,13.50
2019,09,20,09,19,13.50
2019,09,20,09,20,13.50
2019,09,20,09,21,13.50
2019,09,20,09,22,13.60
2019,09,20,09,23,13.60
2019,09,20,09,24,13.60
2019,09,20,09,25,13.60
2019,09,20,09,26,13.60
2019,09,20,09,27,13.60
2019,09,20,09,28,13.70
2019,09,20,09,29,13.70
2019,09,20,09,30,13.70
2019,09,20,09,31,13.70
2019,09,20,09,32,13.70
2019,09,20,09,33,13.70
2019,09,20,09,34,13.70
2019,09,20,09,35,13.70
2019,09,20,09,36,13.70
2019,09,20,09,37,13.70
2019,09,20,09,38,13.70
2019,09,20,09,39,13.80
2019,09,20,09,40,13.80
2019,09,20,09,41,13.80
2019,09,20,09,42,13.80
2019,09,20,09,43,13.80
2019,09,20,09,44,13.80
2019,09,20,09,45,13.90
2019,09,20,09,46,13.90
2019,09,20,09,47,13.90
2019,09,20,09,48,13.90
2019,09,20,09,49,13.90
2019,09,20,09,50,13.90
2019,09,20,09,51,14.00
2019,09,20,09,52,14.00
2019,09,20,09,53,14.00
2019,09,20,09,54,14.00
2019,09,20,09,55,14.10
2019,09,20,09,56,14.10
2019,09,20,09,57,14.10
2019,09,20,09,58,14.10
2019,09,20,09,59,14.20
2019,09,20,10,00,14.20
2019,09,20,10,01,14.20
2019,09,20,10,02,14.30
2019,09,20,10,03,14.30
2019,09,20,10,04,14.30
2019,09,20,10,05,14.40
2019,09,20,10,06,14.50
2019,09,20,10,07,14.50
2019,09,20,10,08,14.60
2019,09,20,10,09,14.70
2019,09,20,10,10,14.80
2019,09,20,10,11,14.80
2019,09,20,10,12,14.90
2019,09,20,10,13,15.00
2019,09,20,10,14,15.10
2019,09,20,10,15,15.10
2019,09,20,10,16,15.20
2019,09,20,10,17,15.30
2019,09,20,10,18,15.30
2019,09,20,10,19,15.40
2019,09,20,10,20,15.50
2019,09,20,10,21,15.50
2019,09,20,10,22,15.60
2019,09,20,10,23,15.60
2019,09,20,10,24,15.60
2019,09,20,10,25,15.60
2019,09,20,10,26,15.70
2019,09,20,10,27,15.70
2019,09,20,10,28,15.70
2019,09,20,10,29,15.70
2019,09,20,10,30,15.80
2019,09,20,10,31,15.80
2019,09,20,10,32,15.80
2019,09,20,10,33,15.80
2019,09,20,10,34,15.90
2019,09,20,10,35,15.90
2019,09,20,10,36,15.90
2019,09,20,10,37,16.00
2019,09,20,10,38,16.00
2019,09,20,10,39,16.00
2019,09,20,10,40,16.10
2019,09,20,10,41,16.20
2019,09,20,10,42,16.20
2019,09,20,10,43,16.30
2019,09,20,10,44,16.30
2019,09,20,10,45,16.40
2019,09,20,10,46,16.40
2019,09,20,10,47,16.40
2019,09,20,10,48,16.50
2019,09,20,10,49,16.50
2019,09,20,10,50,16.50
2019,09,20,10,51,16.60
2019,09,20,10,52,16.60
2019,09,20,10,53,16.60
2019,09,20,10,54,16.60
2019,09,20,10,55,16.60
2019,09,20,10,56,16.60
2019,09,20,10,57,16.60
2019,09,20,10,58,16.60
2019,09,20,10,59,16.60
2019,09,20,11,00,16.50
2019,09,20,11,01,16.50
2019,09,20,11,02,16.40
2019,09,20,11,03,16.40
2019,09,20,11,04,16.30
2019,09,20,11,05,16.30
2019,09,20,11,06,16.20
2019,09,20,11,07,16.20
2019,09,20,11,08,16.10
2019,09,20,11,09,16.10
2019,09,20,11,10,16.10
2019,09,20,11,11,16.10
2019,09,20,11,12,16.10
2019,09,20,11,13,16.10
2019,09,20,11,14,16.10
2019,09,20,11,15,16.20
2019,09,20,11,16,16.20
2019,09,20,11,17,16.20
2019,09,20,11,18,16.20
2019,09,20,11,19,16.10
2019,09,20,11,20,16.10
2019,09,20,11,21,16.10
2019,09,20,11,22,16.10
2019,09,20,11,23,16.10
2019,09,20,11,24,16.10
2019,09,20,11,25,16.00
2019,09,20,11,26,16.00
2019,09,20,11,27,15.90
2019,09,20,11,28,15.90
2019,09,20,11,29,15.90
2019,09,20,11,30,15.90
2019,09,20,11,31,15.90
2019,09,20,11,32,16.00
2019,09,20,11,33,16.00
2019,09,20,11,34,16.10
2019,09,20,11,35,16.10
2019,09,20,11,36,16.20
2019,09,20,11,37,16.20
2019,09,20,11,38,16.20
2019,09,20,11,39,16.20
2019,09,20,11,40,16.20
2019,09,20,11,41,16.30
2019,09,20,11,42,16.30
2019,09,20,11,43,16.30
2019,09,20,11,44,16.40
2019,09,20,11,45,16.40
2019,09,20,11,46,16.40
2019,09,20,11,47,16.40
2019,09,20,11,48,16.40
2019,09,20,11,49,16.40
2019,09,20,11,50,16.40
2019,09,20,11,51,16.40
2019,09,20,11,52,16.40
2019,09,20,11,53,16.40
2019,09,20,11,54,16.40
2019,09,20,11,55,16.40
2019,09,20,11,56,16.50
2019,09,20,11,57,16.50
2019,09,20,11,58,16.50
2019,09,20,11,59,16.50
2019,09,20,12,00,16.60
2019,09,20,12,01,16.60
2019,09,20,12,02,16.60
2019,09,20,12,03,16.60
2019,09,20,12,04,16.60
2019,09,20,12,05,16.60
2019,09,20,12,06,16.60
2019,09,20,12,07,16.60
2019,09,20,12,08,16.60
2019,09,20,12,09,16.70
2019,09,20,12,10,16.70
2019,09,20,12,11,16.70
2019,09,20,12,12,16.70
2019,09,20,12,13,16.80
2019,09,20,12,14,16.80
2019,09,20,12,15,16.80
2019,09,20,12,16,16.80
2019,09,20,12,17,16.80
2019,09,20,12,18,16.80
2019,09,20,12,19,16.80
2019,09,20,12,20,16.80
2019,09,20,12,21,16.80
2019,09,20,12,22,16.80
2019,09,20,12,23,16.80
2019,09,20,12,24,16.80
2019,09,20,12,25,16.80
2019,09,20,12,26,16.80
2019,09,20,12,27,16.80
2019,09,20,12,28,16.80
2019,09,20,12,29,16.80
2019,09,20,12,30,16.80
2019,09,20,12,31,16.80
2019,09,20,12,32,16.80
2019,09,20,12,33,16.80
2019,09,20,12,34,16.80
2019,09,20,12,35,16.80
2019,09,20,12,36,16.80
2019,09,20,12,37,16.80
2019,09,20,12,38,16.80
2019,09,20,12,39,16.80
2019,09,20,12,40,16.80
2019,09,20,12,41,16.80
2019,09,20,12,42,16.80
2019,09,20,12,43,16.80
2019,09,20,12,44,16.80
2019,09,20,12,45,16.80
2019,09,20,12,46,16.70
2019,09,20,12,47,16.80
2019,09,20,12,48,16.80
2019,09,20,12,49,16.80
2019,09,20,12,50,16.80
2019,09,20,12,51,16.80
2019,09,20,12,52,16.80
2019,09,20,12,53,16.80
2019,09,20,12,54,16.80
2019,09,20,12,55,16.80
2019,09,20,12,56,16.80
2019,09,20,12,57,16.80
2019,09,20,12,58,16.80
2019,09,20,12,59,16.80
2019,09,20,13,00,16.80
2019,09,20,13,01,16.80
2019,09,20,13,02,16.80
2019,09,20,13,03,16.80
2019,09,20,13,04,16.80
2019,09,20,13,05,16.80
2019,09,20,13,06,16.80
2019,09,20,13,07,16.80
2019,09,20,13,08,16.80
2019,09,20,13,09,16.80
2019,09,20,13,10,16.80
2019,09,20,13,11,16.80
2019,09,20,13,12,16.80
2019,09,20,13,13,16.80
2019,09,20,13,14,16.90
2019,09,20,13,15,16.90
2019,09,20,13,16,16.90
2019,09,20,13,17,16.90
2019,09,20,13,18,16.90
2019,09,20,13,19,16.90
2019,09,20,13,20,16.90
2019,09,20,13,21,16.90
2019,09,20,13,22,16.90
2019,09,20,13,23,16.90
2019,09,20,13,24,16.90
2019,09,20,13,25,17.00
2019,09,20,13,26,17.00
2019,09,20,13,27,17.10
2019,09,20,13,28,17.10
2019,09,20,13,29,17.10
2019,09,20,13,30,17.10
2019,09,20,13,31,17.00
2019,09,20,13,32,17.00
2019,09,20,13,33,17.10
2019,09,20,13,34,17.10
2019,09,20,13,35,17.10
2019,09,20,13,36,17.10
2019,09,20,13,37,17.10
2019,09,20,13,38,17.10
2019,09,20,13,39,17.10
2019,09,20,13,40,17.10
2019,09,20,13,41,17.10
2019,09,20,13,42,17.00
2019,09,20,13,43,17.00
2019,09,20,13,44,16.90
2019,09,20,13,45,16.90
2019,09,20,13,46,16.90
2019,09,20,13,47,16.80
2019,09,20,13,48,16.80
2019,09,20,13,49,16.80
2019,09,20,13,50,16.70
2019,09,20,13,51,16.70
2019,09,20,13,52,16.70
2019,09,20,13,53,16.70
2019,09,20,13,54,16.70
2019,09,20,13,55,16.80
2019,09,20,13,56,16.70
2019,09,20,13,57,16.70
2019,09,20,13,58,16.70
2019,09,20,13,59,16.70
2019,09,20,14,00,16.80
2019,09,20,14,01,16.80
2019,09,20,14,02,16.80
2019,09,20,14,03,16.80
2019,09,20,14,04,16.80
2019,09,20,14,05,16.80
2019,09,20,14,06,16.80
2019,09,20,14,07,16.90
2019,09,20,14,08,16.90
2019,09,20,14,09,16.90
2019,09,20,14,10,17.00
2019,09,20,14,11,17.00
2019,09,20,14,12,17.00
2019,09,20,14,13,17.00
2019,09,20,14,14,17.00
2019,09,20,14,15,17.00
2019,09,20,14,16,17.00
2019,09,20,14,17,17.00
2019,09,20,14,18,17.10
2019,09,20,14,19,17.10
2019,09,20,14,20,17.10
2019,09,20,14,21,17.10
2019,09,20,14,22,17.10
2019,09,20,14,23,17.10
2019,09,20,14,24,17.10
2019,09,20,14,25,17.20
2019,09,20,14,26,17.20
2019,09,20,14,27,17.30
2019,09,20,14,28,17.30
2019,09,20,14,29,17.30
2019,09,20,14,30,17.30
2019,09,20,14,31,17.30
2019,09,20,14,32,17.40
2019,09,20,14,33,17.40
2019,09,20,14,34,17.40
2019,09,20,14,35,17.50
2019,09,20,14,36,17.50
2019,09,20,14,37,17.50
2019,09,20,14,38,17.60
2019,09,20,14,39,17.60
2019,09,20,14,40,17.60
2019,09,20,14,41,17.60
2019,09,20,14,42,17.60
2019,09,20,14,43,17.60
2019,09,20,14,44,17.60
2019,09,20,14,45,17.60
2019,09,20,14,46,17.60
2019,09,20,14,47,17.60
2019,09,20,14,48,17.60
2019,09,20,14,49,17.60
2019,09,20,14,50,17.60
2019,09,20,14,51,17.60
2019,09,20,14,52,17.60
2019,09,20,14,53,17.60
2019,09,20,14,54,17.60
2019,09,20,14,55,17.60
2019,09,20,14,56,17.60
2019,09,20,14,57,17.60
2019,09,20,14,58,17.60
2019,09,20,14,59,17.60
2019,09,20,15,00,17.60
2019,09,20,15,01,17.60
2019,09,20,15,02,17.60
2019,09,20,15,03,17.60
2019,09,20,15,04,17.60
2019,09,20,15,05,17.70
2019,09,20,15,06,17.70
2019,09,20,15,07,17.70
2019,09,20,15,08,17.70
2019,09,20,15,09,17.70
2019,09,20,15,10,17.70
2019,09,20,15,11,17.80
2019,09,20,15,12,17.80
2019,09,20,15,13,17.80
2019,09,20,15,14,17.80
2019,09,20,15,15,17.80
2019,09,20,15,16,17.90
2019,09,20,15,17,17.90
2019,09,20,15,18,17.90
2019,09,20,15,19,17.90
2019,09,20,15,20,17.80
2019,09,20,15,21,17.80
2019,09,20,15,22,17.80
2019,09,20,15,23,17.90
2019,09,20,15,24,17.90
2019,09,20,15,25,17.90
2019,09,20,15,26,17.90
2019,09,20,15,27,17.90
2019,09,20,15,28,18.00
2019,09,20,15,29,18.00
2019,09,20,15,30,18.00
2019,09,20,15,31,18.00
2019,09,20,15,32,18.00
2019,09,20,15,33,18.00
2019,09,20,15,34,18.00
2019,09,20,15,35,17.90
2019,09,20,15,36,17.90
2019,09,20,15,37,17.90
2019,09,20,15,38,17.90
2019,09,20,15,39,18.00
2019,09,20,15,40,18.00
2019,09,20,15,41,17.90
2019,09,20,15,42,17.90
2019,09,20,15,43,17.90
2019,09,20,15,44,17.90
2019,09,20,15,45,18.00
2019,09,20,15,46,18.00
2019,09,20,15,47,18.00
2019,09,20,15,48,18.00
2019,09,20,15,49,18.00
2019,09,20,15,50,18.10
2019,09,20,15,51,18.00
2019,09,20,15,52,18.10
2019,09,20,15,53,18.10
2019,09,20,15,54,18.10
2019,09,20,15,55,18.10
2019,09,20,15,56,18.10
2019,09,20,15,57,18.20
2019,09,20,15,58,18.20
2019,09,20,15,59,18.20
2019,09,20,16,00,18.30
2019,09,20,16,01,18.30
2019,09,20,16,02,18.30
2019,09,20,16,03,18.40
2019,09,20,16,04,18.40
2019,09,20,16,05,18.40
2019,09,20,16,06,18.40
2019,09,20,16,07,18.40
2019,09,20,16,08,18.50
2019,09,20,16,09,18.50
2019,09,20,16,10,18.50
2019,09,20,16,11,18.50
2019,09,20,16,12,18.50
2019,09,20,16,13,18.50
2019,09,20,16,14,18.60
2019,09,20,16,15,18.60
2019,09,20,16,16,18.60
2019,09,20,16,17,18.60
2019,09,20,16,18,18.60
2019,09,20,16,19,18.60
2019,09,20,16,20,18.70
2019,09,20,16,21,18.70
2019,09,20,16,22,18.70
2019,09,20,16,23,18.70
2019,09,20,16,24,18.70
2019,09,20,16,25,18.70
2019,09,20,16,26,18.70
2019,09,20,16,27,18.70
2019,09,20,16,28,18.70
2019,09,20,16,29,18.70
2019,09,20,16,30,18.70
2019,09,20,16,31,18.80
2019,09,20,16,32,18.80
2019,09,20,16,33,18.80
2019,09,20,16,34,18.80
2019,09,20,16,35,18.80
2019,09,20,16,36,18.80
2019,09,20,16,37,18.80
2019,09,20,16,38,18.80
2019,09,20,16,39,18.80
2019,09,20,16,40,18.80
2019,09,20,16,41,18.70
2019,09,20,16,42,18.70
2019,09,20,16,43,18.60
2019,09,20,16,44,18.60
2019,09,20,16,45,18.50
2019,09,20,16,46,18.50
2019,09,20,16,47,18.40
2019,09,20,16,48,18.40
2019,09,20,16,49,18.40
2019,09,20,16,50,18.40
2019,09,20,16,51,18.30
2019,09,20,16,52,18.30
2019,09,20,16,53,18.30
2019,09,20,16,54,18.20
2019,09,20,16,55,18.20
2019,09,20,16,56,18.10
2019,09,20,16,57,18.10
2019,09,20,16,58,18.10
2019,09,20,16,59,18.00
2019,09,20,17,00,18.00
2019,09,20,17,01,17.90
2019,09,20,17,02,17.90
2019,09,20,17,03,17.80
2019,09,20,17,04,17.80
2019,09,20,17,05,17.70
2019,09,20,17,06,17.70
2019,09,20,17,07,17.70
2019,09,20,17,08,17.60
2019,09,20,17,09,17.60
2019,09,20,17,10,17.60
2019,09,20,17,11,17.60
2019,09,20,17,12,17.60
2019,09,20,17,13,17.50
2019,09,20,17,14,17.50
2019,09,20,17,15,17.50
2019,09,20,17,16,17.50
2019,09,20,17,17,17.50
2019,09,20,17,18,17.50
2019,09,20,17,19,17.40
2019,09,20,17,20,17.40
2019,09,20,17,21,17.40
2019,09,20,17,22,17.40
2019,09,20,17,23,17.40
2019,09,20,17,24,17.40
2019,09,20,17,25,17.40
2019,09,20,17,26,17.40
2019,09,20,17,27,17.40
2019,09,20,17,28,17.40
2019,09,20,17,29,17.40
2019,09,20,17,30,17.40
2019,09,20,17,31,17.40
2019,09,20,17,32,17.40
2019,09,20,17,33,17.40
2019,09,20,17,34,17.40
2019,09,20,17,35,17.40
2019,09,20,17,36,17.50
2019,09,20,17,37,17.50
2019,09,20,17,38,17.50
2019,09,20,17,39,17.50
2019,09,20,17,40,17.50
2019,09,20,17,41,17.50
2019,09,20,17,42,17.50
2019,09,20,17,43,17.50
2019,09,20,17,44,17.40
2019,09,20,17,45,17.40
2019,09,20,17,46,17.40
2019,09,20,17,47,17.40
2019,09,20,17,48,17.40
2019,09,20,17,49,17.40
2019,09,20,17,50,17.30
2019,09,20,17,51,17.30
2019,09,20,17,52,17.20
2019,09,20,17,53,17.10
2019,09,20,17,54,17.10
2019,09,20,17,55,17.00
2019,09,20,17,56,16.90
2019,09,20,17,57,16.80
2019,09,20,17,58,16.70
2019,09,20,17,59,16.60
2019,09,20,18,00,16.50
2019,09,20,18,01,16.40
2019,09,20,18,02,16.30
2019,09,20,18,03,16.30
2019,09,20,18,04,16.30
2019,09,20,18,05,16.30
2019,09,20,18,06,16.20
2019,09,20,18,07,16.20
2019,09,20,18,08,16.20
2019,09,20,18,09,16.10
2019,09,20,18,10,16.10
2019,09,20,18,11,16.00
2019,09,20,18,12,16.00
2019,09,20,18,13,15.90
2019,09,20,18,14,15.90
2019,09,20,18,15,15.90
2019,09,20,18,16,15.90
2019,09,20,18,17,15.90
2019,09,20,18,18,15.90
2019,09,20,18,19,15.90
2019,09,20,18,20,15.90
2019,09,20,18,21,15.90
2019,09,20,18,22,15.90
2019,09,20,18,23,15.90
2019,09,20,18,24,15.90
2019,09,20,18,25,15.90
2019,09,20,18,26,15.90
2019,09,20,18,27,15.90
2019,09,20,18,28,15.90
2019,09,20,18,29,15.80
2019,09,20,18,30,15.80
2019,09,20,18,31,15.80
2019,09,20,18,32,15.80
2019,09,20,18,33,15.70
2019,09,20,18,34,15.70
2019,09,20,18,35,15.70
2019,09,20,18,36,15.70
2019,09,20,18,37,15.70
2019,09,20,18,38,15.70
2019,09,20,18,39,15.70
2019,09,20,18,40,15.70
2019,09,20,18,41,15.70
2019,09,20,18,42,15.70
2019,09,20,18,43,15.70
2019,09,20,18,44,15.70
2019,09,20,18,45,15.70
2019,09,20,18,46,15.70
2019,09,20,18,47,15.70
2019,09,20,18,48,15.70
2019,09,20,18,49,15.70
2019,09,20,18,50,15.70
2019,09,20,18,51,15.70
2019,09,20,18,52,15.70
2019,09,20,18,53,15.70
2019,09,20,18,54,15.70
2019,09,20,18,55,15.80
2019,09,20,18,56,15.80
2019,09,20,18,57,15.80
2019,09,20,18,58,15.80
2019,09,20,18,59,15.80
2019,09,20,19,00,15.80
2019,09,20,19,01,15.80
2019,09,20,19,02,15.80
2019,09,20,19,03,15.80
2019,09,20,19,04,15.80
2019,09,20,19,05,15.80
2019,09,20,19,06,15.80
2019,09,20,19,07,15.80
2019,09,20,19,08,15.80
2019,09,20,19,09,15.80
2019,09,20,19,10,15.80
2019,09,20,19,11,15.80
2019,09,20,19,12,15.70
2019,09,20,19,13,15.70
2019,09,20,19,14,15.70
2019,09,20,19,15,15.70
2019,09,20,19,16,15.70
2019,09,20,19,17,15.70
2019,09,20,19,18,15.70
2019,09,20,19,19,15.70
2019,09,20,19,20,15.60
2019,09,20,19,21,15.60
2019,09,20,19,22,15.60
2019,09,20,19,23,15.60
2019,09,20,19,24,15.50
2019,09,20,19,25,15.50
2019,09,20,19,26,15.40
2019,09,20,19,27,15.40
2019,09,20,19,28,15.40
2019,09,20,19,29,15.30
2019,09,20,19,30,15.30
2019,09,20,19,31,15.20
2019,09,20,19,32,15.20
2019,09,20,19,33,15.20
2019,09,20,19,34,15.10
2019,09,20,19,35,15.10
2019,09,20,19,36,15.10
2019,09,20,19,37,15.00
2019,09,20,19,38,15.00
2019,09,20,19,39,15.00
2019,09,20,19,40,14.90
2019,09,20,19,41,14.90
2019,09,20,19,42,14.90
2019,09,20,19,43,14.80
2019,09,20,19,44,14.80
2019,09,20,19,45,14.80
2019,09,20,19,46,14.80
2019,09,20,19,47,14.80
2019,09,20,19,48,14.70
2019,09,20,19,49,14.70
2019,09,20,19,50,14.70